Time,TemperatureF,DewpointF,PressureIn,WindDirection,WindDirectionDegrees,WindSpeedMPH,WindSpeedGustMPH,Humidity,HourlyPrecipIn,Conditions,Clouds,dailyrainin,SoftwareType,DateUTC
2013-09-27 00:02:00,56.9,46.4,30.04,SE,133,0.0,0.0,68,0.00,CLR,,0.00,WeatherDisplay:10.37,2013-09-27 05:02:00,
2013-09-27 00:07:00,56.9,46.4,30.04,SE,133,0.0,0.0,68,0.00,CLR,,0.00,WeatherDisplay:10.37,2013-09-27 05:07:00,
2013-09-27 00:12:00,56.8,46.3,30.04,SE,133,0.0,0.0,68,0.00,CLR,,0.00,WeatherDisplay:10.37,2013-09-27 05:12:00,
2013-09-27 00:17:00,56.7,46.3,30.04,SE,133,0.0,0.0,68,0.00,CLR,,0.00,WeatherDisplay:10.37,2013-09-27 05:17:00,
2013-09-27 00:22:00,56.7,46.3,30.04,SE,133,0.0,0.0,68,0.00,CLR,,0.00,WeatherDisplay:10.37,2013-09-27 05:22:00,
2013-09-27 00:27:00,56.7,46.3,30.04,SE,133,0.0,0.0,68,0.00,CLR,,0.00,WeatherDisplay:10.37,2013-09-27 05:27:00,
2013-09-27 00:32:00,56.6,46.2,30.04,SE,133,0.0,0.0,68,0.00,CLR,,0.00,WeatherDisplay:10.37,2013-09-27 05:32:00,
2013-09-27 00:37:00,56.5,46.1,30.04,SE,133,0.0,0.0,68,0.00,CLR,,0.00,WeatherDisplay:10.37,2013-09-27 05:37:00,
2013-09-27 00:42:00,56.4,46.0,30.04,SE,133,0.0,0.0,68,0.00,CLR,,0.00,WeatherDisplay:10.37,2013-09-27 05:42:00,
2013-09-27 00:47:00,56.3,45.9,30.04,SE,133,0.0,0.0,68,0.00,CLR,,0.00,WeatherDisplay:10.37,2013-09-27 05:47:00,
2013-09-27 00:52:00,56.1,45.7,30.05,SE,133,0.0,0.0,68,0.00,CLR,,0.00,WeatherDisplay:10.37,2013-09-27 05:52:00,
2013-09-27 00:57:00,55.9,45.5,30.04,SE,133,0.0,0.0,68,0.00,CLR,,0.00,WeatherDisplay:10.37,2013-09-27 05:57:00,
2013-09-27 01:02:00,55.8,45.4,30.05,SE,133,0.0,0.0,68,0.00,CLR,,0.00,WeatherDisplay:10.37,2013-09-27 06:02:00,
2013-09-27 01:07:00,55.7,45.3,30.05,SE,133,0.0,0.0,68,0.00,CLR,,0.00,WeatherDisplay:10.37,2013-09-27 06:07:00,
2013-09-27 01:12:00,55.7,44.9,30.05,SE,133,0.0,0.0,67,0.00,CLR,,0.00,WeatherDisplay:10.37,2013-09-27 06:12:00,
2013-09-27 01:17:00,55.6,44.8,30.05,SE,133,0.0,0.0,67,0.00,CLR,,0.00,WeatherDisplay:10.37,2013-09-27 06:17:00,
2013-09-27 01:22:00,55.5,44.7,30.05,SE,133,0.0,0.0,67,0.00,CLR,,0.00,WeatherDisplay:10.37,2013-09-27 06:22:00,
2013-09-27 01:27:00,55.4,44.6,30.05,SE,133,0.0,0.0,67,0.00,CLR,,0.00,WeatherDisplay:10.37,2013-09-27 06:27:00,
2013-09-27 01:32:00,55.2,44.4,30.05,SE,133,0.0,0.0,67,0.00,CLR,,0.00,WeatherDisplay:10.37,2013-09-27 06:32:00,
2013-09-27 01:37:00,55.0,44.2,30.05,SE,133,0.0,0.0,67,0.00,CLR,,0.00,WeatherDisplay:10.37,2013-09-27 06:37:00,
2013-09-27 01:42:00,54.9,44.1,30.05,SE,133,0.0,0.0,67,0.00,CLR,,0.00,WeatherDisplay:10.37,2013-09-27 06:42:00,
2013-09-27 01:47:00,54.8,43.7,30.05,SE,133,0.0,0.0,66,0.00,CLR,,0.00,WeatherDisplay:10.37,2013-09-27 06:47:00,
2013-09-27 01:52:00,54.7,43.6,30.05,SE,133,0.0,0.0,66,0.00,CLR,,0.00,WeatherDisplay:10.37,2013-09-27 06:52:00,
2013-09-27 01:57:00,54.7,43.6,30.05,SE,133,0.0,0.0,66,0.00,CLR,,0.00,WeatherDisplay:10.37,2013-09-27 06:57:00,
2013-09-27 02:02:00,54.6,43.5,30.05,SE,133,0.0,0.0,66,0.00,CLR,,0.00,WeatherDisplay:10.37,2013-09-27 07:02:00,
2013-09-27 02:07:00,54.6,43.5,30.05,SE,133,0.0,0.0,66,0.00,CLR,,0.00,WeatherDisplay:10.37,2013-09-27 07:07:00,
2013-09-27 02:12:00,54.5,43.4,30.06,SE,133,0.0,0.0,66,0.00,CLR,,0.00,WeatherDisplay:10.37,2013-09-27 07:12:00,
2013-09-27 02:18:00,54.6,43.5,30.05,SE,133,0.0,0.0,66,0.00,CLR,,0.00,WeatherDisplay:10.37,2013-09-27 07:18:00,
2013-09-27 02:23:00,54.6,43.5,30.05,SE,133,0.0,0.0,66,0.00,CLR,,0.00,WeatherDisplay:10.37,2013-09-27 07:23:00,
2013-09-27 02:28:00,54.5,43.0,30.05,SE,133,0.0,0.0,65,0.00,CLR,,0.00,WeatherDisplay:10.37,2013-09-27 07:28:00,
2013-09-27 02:33:00,54.5,43.0,30.05,SE,133,0.0,0.0,65,0.00,CLR,,0.00,WeatherDisplay:10.37,2013-09-27 07:33:00,
2013-09-27 02:38:00,54.4,42.9,30.05,SE,133,0.0,0.0,65,0.00,CLR,,0.00,WeatherDisplay:10.37,2013-09-27 07:38:00,
2013-09-27 02:43:00,54.3,42.8,30.05,SE,133,0.0,0.0,65,0.00,CLR,,0.00,WeatherDisplay:10.37,2013-09-27 07:43:00,
2013-09-27 02:48:00,54.1,42.6,30.05,SE,133,0.0,0.0,65,0.00,CLR,,0.00,WeatherDisplay:10.37,2013-09-27 07:48:00,
2013-09-27 02:49:00,54.1,42.6,30.05,SE,133,0.0,0.0,65,0.00,CLR,,0.00,WeatherDisplay:10.37,2013-09-27 07:49:00,
2013-09-27 02:54:00,54.0,42.5,30.05,SE,133,0.0,0.0,65,0.00,CLR,,0.00,WeatherDisplay:10.37,2013-09-27 07:54:00,
2013-09-27 02:59:00,54.0,42.5,30.05,SE,133,0.0,0.0,65,0.00,CLR,,0.00,WeatherDisplay:10.37,2013-09-27 07:59:00,
2013-09-27 03:04:00,54.0,42.5,30.05,SE,133,0.0,0.0,65,0.00,CLR,,0.00,WeatherDisplay:10.37,2013-09-27 08:04:00,
2013-09-27 03:09:00,54.0,42.5,30.05,SE,133,0.0,0.0,65,0.00,CLR,,0.00,WeatherDisplay:10.37,2013-09-27 08:09:00,
2013-09-27 03:14:00,53.8,42.3,30.06,SE,133,0.0,0.0,65,0.00,CLR,,0.00,WeatherDisplay:10.37,2013-09-27 08:14:00,
2013-09-27 03:19:00,53.6,42.1,30.06,SE,133,0.0,0.0,65,0.00,CLR,,0.00,WeatherDisplay:10.37,2013-09-27 08:19:00,
2013-09-27 03:24:00,53.4,41.9,30.06,SE,133,0.0,0.0,65,0.00,CLR,,0.00,WeatherDisplay:10.37,2013-09-27 08:24:00,
2013-09-27 03:29:00,53.3,41.8,30.06,SE,133,0.0,0.0,65,0.00,CLR,,0.00,WeatherDisplay:10.37,2013-09-27 08:29:00,
2013-09-27 03:34:00,53.3,41.4,30.06,SE,133,0.0,0.0,64,0.00,CLR,,0.00,WeatherDisplay:10.37,2013-09-27 08:34:00,
2013-09-27 03:39:00,53.3,41.4,30.06,SE,133,0.0,0.0,64,0.00,CLR,,0.00,WeatherDisplay:10.37,2013-09-27 08:39:00,
2013-09-27 03:44:00,53.2,41.3,30.07,SE,133,0.0,0.0,64,0.00,CLR,,0.00,WeatherDisplay:10.37,2013-09-27 08:44:00,
2013-09-27 03:49:00,53.2,41.3,30.07,SE,133,0.0,0.0,64,0.00,CLR,,0.00,WeatherDisplay:10.37,2013-09-27 08:49:00,
2013-09-27 03:54:00,53.3,41.4,30.07,SE,133,0.0,0.0,64,0.00,CLR,,0.00,WeatherDisplay:10.37,2013-09-27 08:54:00,
2013-09-27 03:59:00,53.4,41.5,30.07,SE,133,0.0,0.0,64,0.00,CLR,,0.00,WeatherDisplay:10.37,2013-09-27 08:59:00,
2013-09-27 04:04:00,53.5,41.2,30.07,SE,133,0.0,0.0,63,0.00,CLR,,0.00,WeatherDisplay:10.37,2013-09-27 09:04:00,
2013-09-27 04:09:00,53.5,41.2,30.07,SE,133,0.0,0.0,63,0.00,CLR,,0.00,WeatherDisplay:10.37,2013-09-27 09:09:00,
2013-09-27 04:14:00,53.6,41.3,30.07,SE,133,0.0,0.0,63,0.00,CLR,,0.00,WeatherDisplay:10.37,2013-09-27 09:14:00,
2013-09-27 04:19:00,53.7,41.4,30.07,SE,133,0.0,0.0,63,0.00,CLR,,0.00,WeatherDisplay:10.37,2013-09-27 09:19:00,
2013-09-27 04:24:00,53.9,41.6,30.08,SE,133,0.0,0.0,63,0.00,CLR,,0.00,WeatherDisplay:10.37,2013-09-27 09:24:00,
2013-09-27 04:29:00,53.9,41.6,30.08,SE,133,0.0,0.0,63,0.00,CLR,,0.00,WeatherDisplay:10.37,2013-09-27 09:29:00,
2013-09-27 04:34:00,54.1,41.8,30.08,SE,133,0.0,0.0,63,0.00,CLR,,0.00,WeatherDisplay:10.37,2013-09-27 09:34:00,
2013-09-27 04:39:00,54.0,41.7,30.08,SE,133,0.0,0.0,63,0.00,CLR,,0.00,WeatherDisplay:10.37,2013-09-27 09:39:00,
2013-09-27 04:44:00,53.9,41.6,30.08,SE,133,0.0,0.0,63,0.00,CLR,,0.00,WeatherDisplay:10.37,2013-09-27 09:44:00,
2013-09-27 04:49:00,53.9,41.6,30.08,SE,133,0.0,0.0,63,0.00,CLR,,0.00,WeatherDisplay:10.37,2013-09-27 09:49:00,
2013-09-27 04:54:00,53.8,41.5,30.08,SE,133,0.0,0.0,63,0.00,CLR,,0.00,WeatherDisplay:10.37,2013-09-27 09:54:00,
2013-09-27 04:59:00,53.7,41.4,30.08,SE,133,0.0,0.0,63,0.00,CLR,,0.00,WeatherDisplay:10.37,2013-09-27 09:59:00,
2013-09-27 05:04:00,53.6,41.3,30.08,SE,133,0.0,0.0,63,0.00,CLR,,0.00,WeatherDisplay:10.37,2013-09-27 10:04:00,
2013-09-27 05:09:00,53.5,41.2,30.09,SE,133,0.0,0.0,63,0.00,CLR,,0.00,WeatherDisplay:10.37,2013-09-27 10:09:00,
2013-09-27 05:14:00,53.4,41.1,30.09,SE,133,0.0,0.0,63,0.00,CLR,,0.00,WeatherDisplay:10.37,2013-09-27 10:14:00,
2013-09-27 05:19:00,53.4,41.1,30.09,SE,133,0.0,0.0,63,0.00,CLR,,0.00,WeatherDisplay:10.37,2013-09-27 10:19:00,
2013-09-27 05:24:00,53.5,41.2,30.09,SE,133,0.0,0.0,63,0.00,CLR,,0.00,WeatherDisplay:10.37,2013-09-27 10:24:00,
2013-09-27 05:29:00,53.6,41.3,30.09,SE,133,0.0,0.0,63,0.00,CLR,,0.00,WeatherDisplay:10.37,2013-09-27 10:29:00,
2013-09-27 05:34:00,53.5,41.2,30.09,SE,133,0.0,0.0,63,0.00,CLR,,0.00,WeatherDisplay:10.37,2013-09-27 10:34:00,
2013-09-27 05:39:00,53.4,41.1,30.09,SE,133,0.0,0.0,63,0.00,CLR,,0.00,WeatherDisplay:10.37,2013-09-27 10:39:00,
2013-09-27 05:44:00,53.3,41.0,30.09,SE,133,0.0,0.0,63,0.00,CLR,,0.00,WeatherDisplay:10.37,2013-09-27 10:44:00,
2013-09-27 05:49:00,53.4,41.1,30.09,SE,133,0.0,0.0,63,0.00,CLR,,0.00,WeatherDisplay:10.37,2013-09-27 10:49:00,
2013-09-27 05:54:00,53.5,41.2,30.09,SE,133,0.0,0.0,63,0.00,CLR,,0.00,WeatherDisplay:10.37,2013-09-27 10:54:00,
2013-09-27 05:59:00,53.5,41.2,30.09,SE,133,0.0,0.0,63,0.00,CLR,,0.00,WeatherDisplay:10.37,2013-09-27 10:59:00,
2013-09-27 06:04:00,53.6,41.3,30.10,SE,133,0.0,0.0,63,0.00,CLR,,0.00,WeatherDisplay:10.37,2013-09-27 11:04:00,
2013-09-27 06:09:00,53.5,41.2,30.10,SE,133,0.0,0.0,63,0.00,CLR,,0.00,WeatherDisplay:10.37,2013-09-27 11:09:00,
2013-09-27 06:14:00,53.5,41.2,30.10,SE,133,0.0,0.0,63,0.00,CLR,,0.00,WeatherDisplay:10.37,2013-09-27 11:14:00,
2013-09-27 06:19:00,53.6,41.3,30.10,SE,133,0.0,0.0,63,0.00,CLR,,0.00,WeatherDisplay:10.37,2013-09-27 11:19:00,
2013-09-27 06:24:00,53.6,41.3,30.11,SE,133,0.0,0.0,63,0.00,CLR,,0.00,WeatherDisplay:10.37,2013-09-27 11:24:00,
2013-09-27 06:29:00,53.5,41.2,30.11,SE,133,0.0,0.0,63,0.00,CLR,,0.00,WeatherDisplay:10.37,2013-09-27 11:29:00,
2013-09-27 06:34:00,53.4,41.1,30.11,SE,133,0.0,0.0,63,0.00,CLR,,0.00,WeatherDisplay:10.37,2013-09-27 11:34:00,
2013-09-27 06:39:00,53.2,40.9,30.11,SE,133,0.0,0.0,63,0.00,CLR,,0.00,WeatherDisplay:10.37,2013-09-27 11:39:00,
2013-09-27 06:44:00,53.1,40.8,30.11,SE,133,0.0,0.0,63,0.00,CLR,,0.00,WeatherDisplay:10.37,2013-09-27 11:44:00,
2013-09-27 06:49:00,52.9,40.6,30.11,SE,133,0.0,0.0,63,0.00,CLR,,0.00,WeatherDisplay:10.37,2013-09-27 11:49:00,
2013-09-27 06:54:00,52.6,40.4,30.11,SE,133,0.0,0.0,63,0.00,CLR,,0.00,WeatherDisplay:10.37,2013-09-27 11:54:00,
2013-09-27 06:59:00,52.5,40.3,30.11,SE,133,0.0,0.0,63,0.00,CLR,,0.00,WeatherDisplay:10.37,2013-09-27 11:59:00,
2013-09-27 07:04:00,52.4,40.2,30.11,SE,133,0.0,0.0,63,0.00,CLR,,0.00,WeatherDisplay:10.37,2013-09-27 12:04:00,
2013-09-27 07:09:00,52.3,40.1,30.11,SE,133,0.0,0.0,63,0.00,CLR,,0.00,WeatherDisplay:10.37,2013-09-27 12:09:00,
2013-09-27 07:14:00,52.3,40.1,30.12,SE,133,0.0,0.0,63,0.00,CLR,,0.00,WeatherDisplay:10.37,2013-09-27 12:14:00,
2013-09-27 07:19:00,52.4,40.2,30.12,SE,133,0.0,0.0,63,0.00,CLR,,0.00,WeatherDisplay:10.37,2013-09-27 12:19:00,
2013-09-27 07:24:00,52.7,40.5,30.12,SE,133,0.0,0.0,63,0.00,CLR,,0.00,WeatherDisplay:10.37,2013-09-27 12:24:00,
2013-09-27 07:29:00,53.2,40.5,30.12,SE,133,0.0,0.0,62,0.00,CLR,,0.00,WeatherDisplay:10.37,2013-09-27 12:29:00,
2013-09-27 07:34:00,53.9,41.2,30.12,SE,133,0.0,0.0,62,0.00,CLR,,0.00,WeatherDisplay:10.37,2013-09-27 12:34:00,
2013-09-27 07:39:00,54.5,41.7,30.12,SE,133,0.0,0.0,62,0.00,CLR,,0.00,WeatherDisplay:10.37,2013-09-27 12:39:00,
2013-09-27 07:44:00,55.0,41.8,30.12,SE,133,0.0,0.0,61,0.00,CLR,,0.00,WeatherDisplay:10.37,2013-09-27 12:44:00,
2013-09-27 07:49:00,55.5,42.3,30.12,SE,133,0.0,0.0,61,0.00,CLR,,0.00,WeatherDisplay:10.37,2013-09-27 12:49:00,
2013-09-27 07:54:00,56.1,42.8,30.12,SE,133,0.0,0.0,61,0.00,CLR,,0.00,WeatherDisplay:10.37,2013-09-27 12:54:00,
2013-09-27 07:59:00,56.8,43.5,30.12,SE,133,0.0,0.0,61,0.00,CLR,,0.00,WeatherDisplay:10.37,2013-09-27 12:59:00,
2013-09-27 08:04:00,57.4,44.1,30.12,SE,133,0.0,0.0,61,0.00,CLR,,0.00,WeatherDisplay:10.37,2013-09-27 13:04:00,
2013-09-27 08:09:00,58.0,45.0,30.12,SE,133,0.0,0.0,62,0.00,CLR,,0.00,WeatherDisplay:10.37,2013-09-27 13:09:00,
2013-09-27 08:14:00,58.8,45.8,30.13,SE,133,0.0,0.0,62,0.00,CLR,,0.00,WeatherDisplay:10.37,2013-09-27 13:14:00,
2013-09-27 08:19:00,59.3,46.3,30.12,SE,133,0.0,0.0,62,0.00,CLR,,0.00,WeatherDisplay:10.37,2013-09-27 13:19:00,
2013-09-27 08:24:00,60.0,47.4,30.13,SE,133,0.0,0.0,63,0.00,CLR,,0.00,WeatherDisplay:10.37,2013-09-27 13:24:00,
2013-09-27 08:29:00,60.4,48.6,30.13,SE,133,0.0,0.0,65,0.00,CLR,,0.00,WeatherDisplay:10.37,2013-09-27 13:29:00,
2013-09-27 08:34:00,60.9,49.5,30.13,SE,133,0.0,0.0,66,0.00,CLR,,0.00,WeatherDisplay:10.37,2013-09-27 13:34:00,
2013-09-27 08:39:00,61.6,50.5,30.13,SE,133,0.0,0.0,67,0.00,CLR,,0.00,WeatherDisplay:10.37,2013-09-27 13:39:00,
2013-09-27 08:44:00,62.0,51.3,30.13,SE,133,0.0,0.0,68,0.00,CLR,,0.00,WeatherDisplay:10.37,2013-09-27 13:44:00,
2013-09-27 08:49:00,62.4,52.1,30.13,SE,133,0.0,0.0,69,0.00,CLR,,0.00,WeatherDisplay:10.37,2013-09-27 13:49:00,
2013-09-27 08:54:00,62.8,52.9,30.13,SSE,153,1.2,0.0,70,0.00,CLR,,0.00,WeatherDisplay:10.37,2013-09-27 13:54:00,
2013-09-27 08:59:00,63.2,53.3,30.13,SSE,149,0.0,0.0,70,0.00,CLR,,0.00,WeatherDisplay:10.37,2013-09-27 13:59:00,
2013-09-27 09:04:00,63.7,53.7,30.14,SE,141,0.0,0.0,70,0.00,CLR,,0.00,WeatherDisplay:10.37,2013-09-27 14:04:00,
2013-09-27 09:09:00,64.1,54.1,30.14,SE,142,0.0,0.0,70,0.00,CLR,,0.00,WeatherDisplay:10.37,2013-09-27 14:09:00,
2013-09-27 09:15:00,64.7,54.7,30.13,SE,141,0.0,0.0,70,0.00,CLR,,0.00,WeatherDisplay:10.37,2013-09-27 14:15:00,
2013-09-27 09:20:00,65.6,55.5,30.14,SE,142,0.0,0.0,70,0.00,CLR,,0.00,WeatherDisplay:10.37,2013-09-27 14:20:00,
2013-09-27 09:25:00,66.7,56.6,30.14,SE,141,0.0,0.0,70,0.00,CLR,,0.00,WeatherDisplay:10.37,2013-09-27 14:25:00,
2013-09-27 09:30:00,67.4,57.3,30.14,SE,142,0.0,0.0,70,0.00,CLR,,0.00,WeatherDisplay:10.37,2013-09-27 14:30:00,
2013-09-27 09:35:00,67.7,57.6,30.14,SE,145,0.0,0.0,70,0.00,CLR,,0.00,WeatherDisplay:10.37,2013-09-27 14:35:00,
2013-09-27 09:40:00,67.9,57.8,30.14,SE,145,0.0,0.0,70,0.00,CLR,,0.00,WeatherDisplay:10.37,2013-09-27 14:40:00,
2013-09-27 09:45:00,68.5,58.3,30.14,SSW,202,1.2,1.2,70,0.00,CLR,,0.00,WeatherDisplay:10.37,2013-09-27 14:45:00,
2013-09-27 09:50:00,68.8,58.2,30.14,SSW,203,0.0,0.0,69,0.00,CLR,,0.00,WeatherDisplay:10.37,2013-09-27 14:50:00,
2013-09-27 09:55:00,69.2,59.0,30.14,SSW,202,0.0,0.0,70,0.00,CLR,,0.00,WeatherDisplay:10.37,2013-09-27 14:55:00,
2013-09-27 10:00:00,70.0,59.4,30.14,SSW,193,0.0,0.0,69,0.00,CLR,,0.00,WeatherDisplay:10.37,2013-09-27 15:00:00,
2013-09-27 10:05:00,70.6,59.9,30.13,SSW,192,0.0,0.0,69,0.00,CLR,,0.00,WeatherDisplay:10.37,2013-09-27 15:05:00,
2013-09-27 10:10:00,71.1,60.0,30.13,SE,140,1.2,0.0,68,0.00,CLR,,0.00,WeatherDisplay:10.37,2013-09-27 15:10:00,
2013-09-27 10:15:00,71.3,60.2,30.13,ESE,111,1.2,0.0,68,0.00,CLR,,0.00,WeatherDisplay:10.37,2013-09-27 15:15:00,
2013-09-27 10:20:00,71.4,59.9,30.13,ESE,110,1.2,0.0,67,0.00,CLR,,0.00,WeatherDisplay:10.37,2013-09-27 15:20:00,
2013-09-27 10:25:00,71.6,60.1,30.13,SE,131,1.0,1.0,67,0.00,CLR,,0.00,WeatherDisplay:10.37,2013-09-27 15:25:00,
2013-09-27 10:30:00,72.1,60.1,30.14,SE,138,0.0,0.0,66,0.00,CLR,,0.00,WeatherDisplay:10.37,2013-09-27 15:30:00,
2013-09-27 10:35:00,72.7,60.3,30.14,East,87,0.0,0.2,65,0.00,CLR,,0.00,WeatherDisplay:10.37,2013-09-27 15:35:00,
2013-09-27 10:40:00,73.0,60.1,30.14,East,82,3.5,0.0,64,0.00,CLR,,0.00,WeatherDisplay:10.37,2013-09-27 15:40:00,
2013-09-27 10:45:00,73.1,59.8,30.14,East,92,0.0,0.0,63,0.00,CLR,,0.00,WeatherDisplay:10.37,2013-09-27 15:45:00,
2013-09-27 10:50:00,74.0,61.0,30.14,ESE,122,1.2,0.0,64,0.00,CLR,,0.00,WeatherDisplay:10.37,2013-09-27 15:50:00,
2013-09-27 10:55:00,73.8,59.5,30.13,ESE,103,1.2,0.0,61,0.00,CLR,,0.00,WeatherDisplay:10.37,2013-09-27 15:55:00,
2013-09-27 11:00:00,73.7,59.4,30.13,East,84,4.0,4.0,61,0.00,CLR,,0.00,WeatherDisplay:10.37,2013-09-27 16:00:00,
2013-09-27 11:05:00,73.9,60.1,30.13,ESE,102,0.0,0.0,62,0.00,CLR,,0.00,WeatherDisplay:10.37,2013-09-27 16:05:00,
2013-09-27 11:10:00,74.8,60.4,30.13,East,93,0.0,0.1,61,0.00,CLR,,0.00,WeatherDisplay:10.37,2013-09-27 16:10:00,
2013-09-27 11:15:00,75.1,59.3,30.13,SSE,163,1.2,0.0,58,0.00,CLR,,0.00,WeatherDisplay:10.37,2013-09-27 16:15:00,
2013-09-27 11:20:00,75.5,60.2,30.13,NNE,33,3.5,0.0,59,0.00,CLR,,0.00,WeatherDisplay:10.37,2013-09-27 16:20:00,
2013-09-27 11:25:00,76.0,59.7,30.13,SE,128,1.2,0.0,57,0.00,CLR,,0.00,WeatherDisplay:10.37,2013-09-27 16:25:00,
2013-09-27 11:30:00,76.1,58.2,30.12,SE,145,8.0,8.0,54,0.00,CLR,,0.00,WeatherDisplay:10.37,2013-09-27 16:30:00,
2013-09-27 11:35:00,75.7,57.4,30.12,South,173,12.7,12.7,53,0.00,CLR,,0.00,WeatherDisplay:10.37,2013-09-27 16:35:00,
2013-09-27 11:40:00,75.5,57.2,30.12,South,179,7.0,7.0,53,0.00,CLR,,0.00,WeatherDisplay:10.37,2013-09-27 16:40:00,
2013-09-27 11:45:00,75.5,57.2,30.12,SW,215,6.9,6.9,53,0.00,CLR,,0.00,WeatherDisplay:10.37,2013-09-27 16:45:00,
2013-09-27 11:50:00,75.7,57.4,30.12,ESE,107,6.9,6.9,53,0.00,CLR,,0.00,WeatherDisplay:10.37,2013-09-27 16:50:00,
2013-09-27 11:55:00,75.6,57.3,30.12,ESE,118,3.5,3.5,53,0.00,CLR,,0.00,WeatherDisplay:10.37,2013-09-27 16:55:00,
2013-09-27 12:00:00,75.6,57.3,30.12,SSE,157,0.0,0.1,53,0.00,CLR,,0.00,WeatherDisplay:10.37,2013-09-27 17:00:00,
2013-09-27 12:05:00,75.8,58.5,30.12,SSE,148,1.2,1.2,55,0.00,CLR,,0.00,WeatherDisplay:10.37,2013-09-27 17:05:00,
2013-09-27 12:10:00,76.0,58.2,30.12,SE,127,9.0,9.0,54,0.00,CLR,,0.00,WeatherDisplay:10.37,2013-09-27 17:10:00,
2013-09-27 12:15:00,76.4,58.0,30.11,SSE,165,0.0,0.0,53,0.00,CLR,,0.00,WeatherDisplay:10.37,2013-09-27 17:15:00,
2013-09-27 12:20:00,76.8,57.3,30.11,SSE,152,5.8,5.8,51,0.00,CLR,,0.00,WeatherDisplay:10.37,2013-09-27 17:20:00,
2013-09-27 12:25:00,77.1,57.6,30.11,ESE,117,3.5,3.5,51,0.00,CLR,,0.00,WeatherDisplay:10.37,2013-09-27 17:25:00,
2013-09-27 12:26:00,77.1,57.6,30.11,East,101,4.0,4.0,51,0.00,CLR,,0.00,WeatherDisplay:10.37,2013-09-27 17:26:00,
2013-09-27 12:31:00,76.8,57.3,30.11,ESE,102,1.2,0.0,51,0.00,CLR,,0.00,WeatherDisplay:10.37,2013-09-27 17:31:00,
2013-09-27 12:36:00,76.7,57.2,30.11,East,96,1.2,0.0,51,0.00,CLR,,0.00,WeatherDisplay:10.37,2013-09-27 17:36:00,
2013-09-27 12:41:00,76.8,57.3,30.10,SSE,151,1.2,0.0,51,0.00,CLR,,0.00,WeatherDisplay:10.37,2013-09-27 17:41:00,
2013-09-27 12:46:00,77.2,57.1,30.10,East,91,5.8,5.8,50,0.00,CLR,,0.00,WeatherDisplay:10.37,2013-09-27 17:46:00,
2013-09-27 12:51:00,77.3,57.2,30.10,SSE,150,4.6,4.6,50,0.00,CLR,,0.00,WeatherDisplay:10.37,2013-09-27 17:51:00,
2013-09-27 12:56:00,77.7,57.0,30.10,SW,221,4.0,4.0,49,0.00,CLR,,0.00,WeatherDisplay:10.37,2013-09-27 17:56:00,
2013-09-27 13:01:00,78.1,57.4,30.10,SE,144,0.0,0.0,49,0.00,CLR,,0.00,WeatherDisplay:10.37,2013-09-27 18:01:00,
2013-09-27 13:06:00,78.2,56.9,30.09,SSE,168,10.4,10.4,48,0.00,CLR,,0.00,WeatherDisplay:10.37,2013-09-27 18:06:00,
2013-09-27 13:11:00,78.4,55.9,30.09,ESE,105,4.6,0.0,46,0.00,CLR,,0.00,WeatherDisplay:10.37,2013-09-27 18:11:00,
2013-09-27 13:16:00,78.1,56.2,30.09,ESE,104,5.8,5.8,47,0.00,CLR,,0.00,WeatherDisplay:10.37,2013-09-27 18:16:00,
2013-09-27 13:21:00,78.2,56.3,30.09,East,96,5.0,5.0,47,0.00,CLR,,0.00,WeatherDisplay:10.37,2013-09-27 18:21:00,
2013-09-27 13:26:00,78.2,58.0,30.08,ESE,111,3.5,3.5,50,0.00,CLR,,0.00,WeatherDisplay:10.37,2013-09-27 18:26:00,
2013-09-27 13:31:00,78.4,57.1,30.08,East,98,7.0,7.0,48,0.00,CLR,,0.00,WeatherDisplay:10.37,2013-09-27 18:31:00,
2013-09-27 13:36:00,78.5,56.0,30.08,SE,129,6.9,6.9,46,0.00,CLR,,0.00,WeatherDisplay:10.37,2013-09-27 18:36:00,
2013-09-27 13:41:00,78.4,55.9,30.08,SE,136,5.8,5.8,46,0.00,CLR,,0.00,WeatherDisplay:10.37,2013-09-27 18:41:00,
2013-09-27 13:46:00,78.6,56.1,30.08,SSE,155,0.0,0.0,46,0.00,CLR,,0.00,WeatherDisplay:10.37,2013-09-27 18:46:00,
2013-09-27 13:51:00,78.9,56.4,30.08,SE,125,1.2,0.0,46,0.00,CLR,,0.00,WeatherDisplay:10.37,2013-09-27 18:51:00,
2013-09-27 13:56:00,79.0,55.2,30.08,SSE,159,5.8,5.8,44,0.00,CLR,,0.00,WeatherDisplay:10.37,2013-09-27 18:56:00,
2013-09-27 14:01:00,78.9,55.1,30.08,East,98,3.5,3.5,44,0.00,CLR,,0.00,WeatherDisplay:10.37,2013-09-27 19:01:00,
2013-09-27 14:06:00,79.3,55.5,30.07,ESE,111,1.0,0.0,44,0.00,CLR,,0.00,WeatherDisplay:10.37,2013-09-27 19:06:00,
2013-09-27 14:11:00,79.6,55.8,30.07,East,80,0.0,0.0,44,0.00,CLR,,0.00,WeatherDisplay:10.37,2013-09-27 19:11:00,
2013-09-27 14:16:00,79.7,56.5,30.07,East,101,1.2,1.2,45,0.00,CLR,,0.00,WeatherDisplay:10.37,2013-09-27 19:16:00,
2013-09-27 14:21:00,79.6,55.8,30.07,SSE,149,0.0,0.0,44,0.00,CLR,,0.00,WeatherDisplay:10.37,2013-09-27 19:21:00,
2013-09-27 14:26:00,79.6,57.0,30.07,SE,146,4.6,0.0,46,0.00,CLR,,0.00,WeatherDisplay:10.37,2013-09-27 19:26:00,
2013-09-27 14:31:00,79.8,57.8,30.06,East,101,0.0,0.4,47,0.00,CLR,,0.00,WeatherDisplay:10.37,2013-09-27 19:31:00,
2013-09-27 14:36:00,80.0,57.4,30.06,SSE,167,4.0,4.0,46,0.00,CLR,,0.00,WeatherDisplay:10.37,2013-09-27 19:36:00,
2013-09-27 14:41:00,79.9,57.9,30.06,SE,146,6.9,6.9,47,0.00,CLR,,0.00,WeatherDisplay:10.37,2013-09-27 19:41:00,
2013-09-27 14:46:00,79.6,57.6,30.06,ESE,111,5.8,5.8,47,0.00,CLR,,0.00,WeatherDisplay:10.37,2013-09-27 19:46:00,
2013-09-27 14:51:00,79.7,57.7,30.06,ENE,61,6.0,6.0,47,0.00,CLR,,0.00,WeatherDisplay:10.37,2013-09-27 19:51:00,
2013-09-27 14:56:00,79.7,57.7,30.06,SSE,165,1.2,0.0,47,0.00,CLR,,0.00,WeatherDisplay:10.37,2013-09-27 19:56:00,
2013-09-27 15:01:00,80.1,58.0,30.06,East,87,0.0,0.1,47,0.00,CLR,,0.00,WeatherDisplay:10.37,2013-09-27 20:01:00,
2013-09-27 15:06:00,80.0,58.0,30.05,East,99,2.0,2.0,47,0.00,CLR,,0.00,WeatherDisplay:10.37,2013-09-27 20:06:00,
2013-09-27 15:11:00,79.8,57.8,30.05,SSE,161,9.2,9.2,47,0.00,CLR,,0.00,WeatherDisplay:10.37,2013-09-27 20:11:00,
2013-09-27 15:16:00,79.9,57.9,30.05,SE,142,4.6,0.0,47,0.00,CLR,,0.00,WeatherDisplay:10.37,2013-09-27 20:16:00,
2013-09-27 15:21:00,80.0,57.4,30.05,East,94,2.3,0.0,46,0.00,CLR,,0.00,WeatherDisplay:10.37,2013-09-27 20:21:00,
2013-09-27 15:26:00,80.0,57.4,30.04,SE,142,3.5,0.0,46,0.00,CLR,,0.00,WeatherDisplay:10.37,2013-09-27 20:26:00,
2013-09-27 15:31:00,79.9,57.3,30.05,SSE,167,9.2,9.2,46,0.00,CLR,,0.00,WeatherDisplay:10.37,2013-09-27 20:31:00,
2013-09-27 15:36:00,80.2,57.5,30.05,ESE,104,5.8,5.8,46,0.00,CLR,,0.00,WeatherDisplay:10.37,2013-09-27 20:36:00,
2013-09-27 15:41:00,80.3,57.6,30.04,SSE,161,5.8,5.8,46,0.00,CLR,,0.00,WeatherDisplay:10.37,2013-09-27 20:41:00,
2013-09-27 15:46:00,80.2,58.1,30.04,ESE,111,0.0,0.0,47,0.00,CLR,,0.00,WeatherDisplay:10.37,2013-09-27 20:46:00,
2013-09-27 15:51:00,80.5,57.8,30.04,ESE,105,0.0,0.1,46,0.00,CLR,,0.00,WeatherDisplay:10.37,2013-09-27 20:51:00,
2013-09-27 15:56:00,80.4,57.7,30.04,ESE,105,3.5,0.0,46,0.00,CLR,,0.00,WeatherDisplay:10.37,2013-09-27 20:56:00,
2013-09-27 16:02:00,80.5,57.2,30.04,ESE,109,1.2,0.0,45,0.00,CLR,,0.00,WeatherDisplay:10.37,2013-09-27 21:02:00,
2013-09-27 16:07:00,80.5,56.6,30.04,ESE,121,5.8,5.8,44,0.00,CLR,,0.00,WeatherDisplay:10.37,2013-09-27 21:07:00,
2013-09-27 16:12:00,80.5,56.6,30.04,ESE,102,0.0,0.0,44,0.00,CLR,,0.00,WeatherDisplay:10.37,2013-09-27 21:12:00,
2013-09-27 16:17:00,80.4,57.1,30.04,ESE,114,0.0,0.0,45,0.00,CLR,,0.00,WeatherDisplay:10.37,2013-09-27 21:17:00,
2013-09-27 16:22:00,80.4,57.1,30.04,East,101,0.0,0.0,45,0.00,CLR,,0.00,WeatherDisplay:10.37,2013-09-27 21:22:00,
2013-09-27 16:27:00,80.5,56.6,30.04,ESE,111,1.2,0.0,44,0.00,CLR,,0.00,WeatherDisplay:10.37,2013-09-27 21:27:00,
2013-09-27 16:32:00,80.4,57.1,30.04,SE,133,2.3,0.0,45,0.00,CLR,,0.00,WeatherDisplay:10.37,2013-09-27 21:32:00,
2013-09-27 16:37:00,80.4,57.1,30.04,ESE,111,1.2,1.2,45,0.00,CLR,,0.00,WeatherDisplay:10.37,2013-09-27 21:37:00,
2013-09-27 16:42:00,80.3,57.0,30.04,SSE,167,1.2,1.2,45,0.00,CLR,,0.00,WeatherDisplay:10.37,2013-09-27 21:42:00,
2013-09-27 16:47:00,80.4,57.1,30.04,SSE,163,4.6,4.6,45,0.00,CLR,,0.00,WeatherDisplay:10.37,2013-09-27 21:47:00,
2013-09-27 16:52:00,80.5,57.2,30.04,East,96,1.2,1.2,45,0.00,CLR,,0.00,WeatherDisplay:10.37,2013-09-27 21:52:00,
2013-09-27 16:57:00,80.1,57.5,30.04,ESE,105,0.0,0.0,46,0.00,CLR,,0.00,WeatherDisplay:10.37,2013-09-27 21:57:00,
2013-09-27 17:02:00,79.9,57.3,30.04,East,91,1.2,0.0,46,0.00,CLR,,0.00,WeatherDisplay:10.37,2013-09-27 22:02:00,
2013-09-27 17:07:00,79.9,57.9,30.04,East,99,1.2,0.0,47,0.00,CLR,,0.00,WeatherDisplay:10.37,2013-09-27 22:07:00,
2013-09-27 17:12:00,79.9,57.9,30.04,SSE,165,1.2,0.0,47,0.00,CLR,,0.00,WeatherDisplay:10.37,2013-09-27 22:12:00,
2013-09-27 17:17:00,79.7,58.3,30.04,SE,140,1.2,0.0,48,0.00,CLR,,0.00,WeatherDisplay:10.37,2013-09-27 22:17:00,
2013-09-27 17:22:00,79.6,58.2,30.04,SE,142,1.2,0.0,48,0.00,CLR,,0.00,WeatherDisplay:10.37,2013-09-27 22:22:00,
2013-09-27 17:27:00,79.4,58.6,30.04,SSE,150,0.0,0.0,49,0.00,CLR,,0.00,WeatherDisplay:10.37,2013-09-27 22:27:00,
2013-09-27 17:32:00,79.2,58.4,30.04,SE,130,1.2,0.0,49,0.00,CLR,,0.00,WeatherDisplay:10.37,2013-09-27 22:32:00,
2013-09-27 17:37:00,78.9,58.1,30.04,SE,136,3.5,0.0,49,0.00,CLR,,0.00,WeatherDisplay:10.37,2013-09-27 22:37:00,
2013-09-27 17:42:00,78.7,58.5,30.04,SE,138,0.0,0.0,50,0.00,CLR,,0.00,WeatherDisplay:10.37,2013-09-27 22:42:00,
2013-09-27 17:47:00,78.7,59.0,30.03,SE,138,0.0,0.0,51,0.00,CLR,,0.00,WeatherDisplay:10.37,2013-09-27 22:47:00,
2013-09-27 17:52:00,78.4,58.8,30.04,SE,138,0.0,0.0,51,0.00,CLR,,0.00,WeatherDisplay:10.37,2013-09-27 22:52:00,
2013-09-27 17:57:00,78.1,59.0,30.03,SE,137,0.0,0.0,52,0.00,CLR,,0.00,WeatherDisplay:10.37,2013-09-27 22:57:00,
2013-09-27 18:02:00,77.8,58.8,30.03,SE,138,0.0,0.0,52,0.00,CLR,,0.00,WeatherDisplay:10.37,2013-09-27 23:02:00,
2013-09-27 18:07:00,77.4,58.9,30.03,SE,138,0.0,0.0,53,0.00,CLR,,0.00,WeatherDisplay:10.37,2013-09-27 23:07:00,
2013-09-27 18:12:00,77.0,58.6,30.03,SE,138,0.0,0.0,53,0.00,CLR,,0.00,WeatherDisplay:10.37,2013-09-27 23:12:00,
2013-09-27 18:18:00,76.5,58.6,30.03,SE,137,0.0,0.0,54,0.00,CLR,,0.00,WeatherDisplay:10.37,2013-09-27 23:18:00,
2013-09-27 18:23:00,76.1,58.8,30.03,SE,138,0.0,0.0,55,0.00,CLR,,0.00,WeatherDisplay:10.37,2013-09-27 23:23:00,
2013-09-27 18:28:00,75.5,58.2,30.03,SE,138,0.0,0.0,55,0.00,CLR,,0.00,WeatherDisplay:10.37,2013-09-27 23:28:00,
2013-09-27 18:33:00,75.0,58.2,30.03,SE,137,0.0,0.0,56,0.00,CLR,,0.00,WeatherDisplay:10.37,2013-09-27 23:33:00,
2013-09-27 18:38:00,74.3,58.1,30.03,SE,138,0.0,0.0,57,0.00,CLR,,0.00,WeatherDisplay:10.37,2013-09-27 23:38:00,
2013-09-27 18:43:00,73.8,58.1,30.03,SE,138,0.0,0.0,58,0.00,CLR,,0.00,WeatherDisplay:10.37,2013-09-27 23:43:00,
2013-09-27 18:48:00,73.2,58.0,30.03,SE,137,0.0,0.0,59,0.00,CLR,,0.00,WeatherDisplay:10.37,2013-09-27 23:48:00,
2013-09-27 18:53:00,72.7,58.0,30.03,SE,138,0.0,0.0,60,0.00,CLR,,0.00,WeatherDisplay:10.37,2013-09-27 23:53:00,
2013-09-27 18:58:00,72.1,57.4,30.03,SE,138,0.0,0.0,60,0.00,CLR,,0.00,WeatherDisplay:10.37,2013-09-27 23:58:00,
2013-09-27 19:03:00,71.5,57.3,30.04,SE,137,0.0,0.0,61,0.00,CLR,,0.00,WeatherDisplay:10.37,2013-09-28 00:03:00,
2013-09-27 19:08:00,71.2,57.5,30.04,SE,138,0.0,0.0,62,0.00,CLR,,0.00,WeatherDisplay:10.37,2013-09-28 00:08:00,
2013-09-27 19:13:00,70.7,57.5,30.04,SE,138,0.0,0.0,63,0.00,CLR,,0.00,WeatherDisplay:10.37,2013-09-28 00:13:00,
2013-09-27 19:18:00,70.3,57.1,30.04,SE,138,0.0,0.0,63,0.00,CLR,,0.00,WeatherDisplay:10.37,2013-09-28 00:18:00,
2013-09-27 19:23:00,69.8,57.1,30.04,SE,138,0.0,0.0,64,0.00,CLR,,0.00,WeatherDisplay:10.37,2013-09-28 00:23:00,
2013-09-27 19:28:00,69.3,57.0,30.04,SE,138,0.0,0.0,65,0.00,CLR,,0.00,WeatherDisplay:10.37,2013-09-28 00:28:00,
2013-09-27 19:33:00,68.8,57.0,30.04,SE,137,0.0,0.0,66,0.00,CLR,,0.00,WeatherDisplay:10.37,2013-09-28 00:33:00,
2013-09-27 19:38:00,68.4,56.6,30.05,SE,138,0.0,0.0,66,0.00,CLR,,0.00,WeatherDisplay:10.37,2013-09-28 00:38:00,
2013-09-27 19:43:00,68.1,56.7,30.05,SE,138,0.0,0.0,67,0.00,CLR,,0.00,WeatherDisplay:10.37,2013-09-28 00:43:00,
2013-09-27 19:48:00,67.8,56.4,30.04,SE,138,0.0,0.0,67,0.00,CLR,,0.00,WeatherDisplay:10.37,2013-09-28 00:48:00,
2013-09-27 19:53:00,67.4,56.5,30.05,SE,137,0.0,0.0,68,0.00,CLR,,0.00,WeatherDisplay:10.37,2013-09-28 00:53:00,
2013-09-27 19:58:00,67.1,56.2,30.05,SE,137,0.0,0.0,68,0.00,CLR,,0.00,WeatherDisplay:10.37,2013-09-28 00:58:00,
2013-09-27 20:03:00,66.8,55.9,30.05,SE,137,0.0,0.0,68,0.00,CLR,,0.00,WeatherDisplay:10.37,2013-09-28 01:03:00,
2013-09-27 20:08:00,66.5,55.6,30.05,SE,138,0.0,0.0,68,0.00,CLR,,0.00,WeatherDisplay:10.37,2013-09-28 01:08:00,
2013-09-27 20:13:00,66.3,55.8,30.05,SE,138,0.0,0.0,69,0.00,CLR,,0.00,WeatherDisplay:10.37,2013-09-28 01:13:00,
2013-09-27 20:18:00,66.3,55.4,30.05,SE,138,0.0,0.0,68,0.00,CLR,,0.00,WeatherDisplay:10.37,2013-09-28 01:18:00,
2013-09-27 20:23:00,66.4,55.5,30.05,SE,138,0.0,0.0,68,0.00,CLR,,0.00,WeatherDisplay:10.37,2013-09-28 01:23:00,
2013-09-27 20:28:00,66.4,55.1,30.05,SE,138,0.0,0.0,67,0.00,CLR,,0.00,WeatherDisplay:10.37,2013-09-28 01:28:00,
2013-09-27 20:33:00,66.6,55.3,30.06,SE,138,0.0,0.0,67,0.00,CLR,,0.00,WeatherDisplay:10.37,2013-09-28 01:33:00,
2013-09-27 20:38:00,66.6,55.3,30.05,SE,137,0.0,0.0,67,0.00,CLR,,0.00,WeatherDisplay:10.37,2013-09-28 01:38:00,
2013-09-27 20:43:00,66.6,55.3,30.06,SE,137,0.0,0.0,67,0.00,CLR,,0.00,WeatherDisplay:10.37,2013-09-28 01:43:00,
2013-09-27 20:48:00,66.6,55.3,30.06,SE,138,0.0,0.0,67,0.00,CLR,,0.00,WeatherDisplay:10.37,2013-09-28 01:48:00,
2013-09-27 20:53:00,66.6,55.3,30.06,SE,138,0.0,0.0,67,0.00,CLR,,0.00,WeatherDisplay:10.37,2013-09-28 01:53:00,
2013-09-27 20:58:00,66.6,54.9,30.06,SE,137,0.0,0.0,66,0.00,CLR,,0.00,WeatherDisplay:10.37,2013-09-28 01:58:00,
2013-09-27 21:03:00,66.6,54.9,30.06,SE,138,0.0,0.0,66,0.00,CLR,,0.00,WeatherDisplay:10.37,2013-09-28 02:03:00,
2013-09-27 21:08:00,66.5,55.2,30.06,SE,138,0.0,0.0,67,0.00,CLR,,0.00,WeatherDisplay:10.37,2013-09-28 02:08:00,
2013-09-27 21:13:00,66.2,54.9,30.06,SE,138,0.0,0.0,67,0.00,CLR,,0.00,WeatherDisplay:10.37,2013-09-28 02:13:00,
2013-09-27 21:18:00,66.0,54.7,30.06,SE,138,0.0,0.0,67,0.00,CLR,,0.00,WeatherDisplay:10.37,2013-09-28 02:18:00,
2013-09-27 21:23:00,65.8,54.9,30.06,SE,138,0.0,0.0,68,0.00,CLR,,0.00,WeatherDisplay:10.37,2013-09-28 02:23:00,
2013-09-27 21:28:00,65.7,54.8,30.06,SE,137,0.0,0.0,68,0.00,CLR,,0.00,WeatherDisplay:10.37,2013-09-28 02:28:00,
2013-09-27 21:33:00,65.7,54.8,30.06,SE,138,0.0,0.0,68,0.00,CLR,,0.00,WeatherDisplay:10.37,2013-09-28 02:33:00,
2013-09-27 21:38:00,65.6,55.2,30.06,SE,138,0.0,0.0,69,0.00,CLR,,0.00,WeatherDisplay:10.37,2013-09-28 02:38:00,
2013-09-27 21:43:00,65.4,55.0,30.06,SE,137,0.0,0.0,69,0.00,CLR,,0.00,WeatherDisplay:10.37,2013-09-28 02:43:00,
2013-09-27 21:48:00,65.1,54.7,30.06,SE,138,0.0,0.0,69,0.00,CLR,,0.00,WeatherDisplay:10.37,2013-09-28 02:48:00,
2013-09-27 21:53:00,64.9,54.5,30.06,SE,138,0.0,0.0,69,0.00,CLR,,0.00,WeatherDisplay:10.37,2013-09-28 02:53:00,
2013-09-27 21:58:00,64.7,54.7,30.06,SE,137,0.0,0.0,70,0.00,CLR,,0.00,WeatherDisplay:10.37,2013-09-28 02:58:00,
2013-09-27 22:03:00,64.4,54.4,30.06,SE,138,0.0,0.0,70,0.00,CLR,,0.00,WeatherDisplay:10.37,2013-09-28 03:03:00,
2013-09-27 22:08:00,64.1,54.5,30.06,SE,138,0.0,0.0,71,0.00,CLR,,0.00,WeatherDisplay:10.37,2013-09-28 03:08:00,
2013-09-27 22:13:00,63.6,54.0,30.06,SE,138,0.0,0.0,71,0.00,CLR,,0.00,WeatherDisplay:10.37,2013-09-28 03:13:00,
2013-09-27 22:18:00,63.2,54.0,30.06,SE,138,0.0,0.0,72,0.00,CLR,,0.00,WeatherDisplay:10.37,2013-09-28 03:18:00,
2013-09-27 22:23:00,62.9,53.7,30.06,SE,138,0.0,0.0,72,0.00,CLR,,0.00,WeatherDisplay:10.37,2013-09-28 03:23:00,
2013-09-27 22:28:00,62.6,53.1,30.06,SE,138,0.0,0.0,71,0.00,CLR,,0.00,WeatherDisplay:10.37,2013-09-28 03:28:00,
2013-09-27 22:33:00,62.3,52.8,30.06,SE,137,0.0,0.0,71,0.00,CLR,,0.00,WeatherDisplay:10.37,2013-09-28 03:33:00,
2013-09-27 22:38:00,62.0,52.5,30.06,SE,137,0.0,0.0,71,0.00,CLR,,0.00,WeatherDisplay:10.37,2013-09-28 03:38:00,
2013-09-27 22:43:00,61.7,52.2,30.06,SE,138,0.0,0.0,71,0.00,CLR,,0.00,WeatherDisplay:10.37,2013-09-28 03:43:00,
2013-09-27 22:48:00,61.5,52.0,30.06,SE,137,0.0,0.0,71,0.00,CLR,,0.00,WeatherDisplay:10.37,2013-09-28 03:48:00,
2013-09-27 22:53:00,61.2,51.7,30.06,SE,138,0.0,0.0,71,0.00,CLR,,0.00,WeatherDisplay:10.37,2013-09-28 03:53:00,
2013-09-27 22:58:00,61.1,51.2,30.06,SE,138,0.0,0.0,70,0.00,CLR,,0.00,WeatherDisplay:10.37,2013-09-28 03:58:00,
2013-09-27 23:01:00,61.0,51.1,30.06,SE,138,0.0,0.0,70,0.00,CLR,,0.00,WeatherDisplay:10.37,2013-09-28 04:01:00,
2013-09-27 23:02:00,61.0,51.1,30.06,SE,138,0.0,0.0,70,0.00,CLR,,0.00,WeatherDisplay:10.37,2013-09-28 04:02:00,
2013-09-27 23:07:00,60.8,51.0,30.06,SE,138,0.0,0.0,70,0.00,CLR,,0.00,WeatherDisplay:10.37,2013-09-28 04:07:00,
2013-09-27 23:12:00,60.7,50.9,30.06,SE,138,0.0,0.0,70,0.00,CLR,,0.00,WeatherDisplay:10.37,2013-09-28 04:12:00,
2013-09-27 23:17:00,60.5,50.7,30.06,SE,138,0.0,0.0,70,0.00,CLR,,0.00,WeatherDisplay:10.37,2013-09-28 04:17:00,
2013-09-27 23:22:00,60.4,50.6,30.06,SE,138,0.0,0.0,70,0.00,CLR,,0.00,WeatherDisplay:10.37,2013-09-28 04:22:00,
2013-09-27 23:27:00,60.4,50.2,30.06,SE,137,0.0,0.0,69,0.00,CLR,,0.00,WeatherDisplay:10.37,2013-09-28 04:27:00,
2013-09-27 23:32:00,60.3,50.1,30.06,SE,138,0.0,0.0,69,0.00,CLR,,0.00,WeatherDisplay:10.37,2013-09-28 04:32:00,
2013-09-27 23:37:00,60.3,50.1,30.05,SE,138,0.0,0.0,69,0.00,CLR,,0.00,WeatherDisplay:10.37,2013-09-28 04:37:00,
2013-09-27 23:42:00,60.0,49.8,30.05,SE,138,0.0,0.0,69,0.00,CLR,,0.00,WeatherDisplay:10.37,2013-09-28 04:42:00,
2013-09-27 23:47:00,59.6,49.4,30.05,SE,137,0.0,0.0,69,0.00,CLR,,0.00,WeatherDisplay:10.37,2013-09-28 04:47:00,
2013-09-27 23:52:00,59.5,49.3,30.05,SE,138,0.0,0.0,69,0.00,CLR,,0.00,WeatherDisplay:10.37,2013-09-28 04:52:00,
2013-09-27 23:57:00,59.4,49.2,30.05,SE,137,0.0,0.0,69,0.00,CLR,,0.00,WeatherDisplay:10.37,2013-09-28 04:57:00,